Wind_Speed
12 11 14 13 10 5 4 7 7 7 4 6 8 10 8 16 17 16 17 17 18 18 19 22 21 20 18 18 17 17 17 15 15 13 10 9 8 9 8 7 6 5 4 4
9 17 17 6 5 10 11 11 10 8 2 4 10 11 9 15 19 19 19 18 18 18 19 20 22 21 21 21 20 18 19 18 17 13 13 7 8 9 9 8 8 7 7 6
19 17 8 7 12 14 15 13 10 11 9 10 10 11 7 10 15 18 19 19 19 18 19 19 21 24 23 22 22 22 21 20 18 15 14 12 8 9 10 10 9 9 8 7
13 7 7 13 16 14 18 9 7 8 10 10 5 10 8 10 14 17 18 20 20 20 18 19 20 24 24 24 23 22 22 22 19 20 17 15 13 11 9 10 8 9 8 6
7 9 13 15 15 12 16 1 7 9 12 13 13 8 2 9 8 13 18 21 22 21 20 19 19 24 25 22 23 23 23 22 20 22 19 17 13 10 9 9 11 9 8 6
1 1 5 8 7 12 11 7 10 12 12 14 17 8 12 2 2 5 4 17 20 23 22 20 24 23 23 23 22 22 23 23 23 22 21 19 16 12 11 11 11 9 7 6
13 13 11 9 11 8 11 16 15 16 14 13 16 7 13 13 12 8 3 8 18 21 23 22 20 20 22 24 24 25 23 24 24 23 22 20 17 14 12 13 12 10 9 9
8 12 16 14 17 14 13 17 15 21 16 15 6 9 14 11 10 11 2 4 7 17 21 23 22 24 25 25 26 27 26 23 24 23 23 21 17 15 13 12 9 11 8 7
5 11 2 6 11 12 18 12 18 22 22 11 14 9 7 16 16 12 2 4 8 14 20 23 23 27 26 26 28 29 28 25 23 23 22 21 19 16 13 10 10 8 8 8
3 11 11 10 6 10 14 8 10 12 19 22 17 17 10 11 8 8 4 5 7 12 17 20 20 24 26 27 28 28 27 28 25 23 23 22 20 17 13 12 11 10 10 9
7 5 2 4 12 14 10 13 13 15 12 15 16 15 14 9 13 10 7 1 5 12 14 17 17 23 25 25 26 27 26 26 25 23 21 20 19 16 15 15 14 13 11 10
5 7 9 13 5 5 11 15 18 12 16 11 15 15 7 7 8 9 5 4 6 10 11 15 16 21 23 24 25 27 26 26 25 23 22 21 19 18 17 17 17 16 14 11
7 5 8 11 8 8 9 13 14 17 17 19 16 12 15 13 10 10 9 4 6 12 13 14 16 17 20 23 24 26 27 28 27 25 24 23 23 22 20 19 17 16 14 11
3 13 11 12 12 8 11 12 12 16 15 17 18 20 15 18 18 7 10 7 7 12 15 15 16 16 20 23 25 28 29 29 30 29 29 28 27 27 25 20 17 16 15 12
6 12 14 13 13 14 14 14 14 16 17 20 19 18 12 13 10 12 12 11 10 11 16 17 18 18 21 25 27 29 31 32 32 30 27 26 23 21 23 25 20 17 15 13
11 12 11 13 18 15 18 19 18 15 15 18 17 19 15 5 10 11 11 11 9 10 14 16 17 19 20 27 30 31 32 32 30 27 27 26 25 23 22 24 24 20 18 15
15 12 11 15 15 13 17 21 21 12 12 12 14 10 10 9 9 11 12 11 10 9 11 15 18 18 24 30 31 32 31 31 29 29 28 27 25 22 20 20 19 20 20 18
15 13 9 12 13 17 19 3 7 10 9 7 11 9 10 11 9 7 3 11 12 9 10 11 14 18 23 25 26 28 31 29 27 26 27 27 25 24 22 21 18 16 18 18
15 13 11 12 12 15 18 8 7 8 13 4 7 6 9 13 13 8 7 13 12 10 9 10 16 18 21 23 26 27 28 28 26 26 26 25 24 24 23 22 21 18 17 18
5 10 10 11 11 15 11 6 5 6 12 6 3 6 11 16 11 11 17 15 13 9 5 7 13 16 19 21 25 27 27 26 23 25 24 22 18 17 17 19 21 19 17 16
8 9 12 12 12 12 6 3 1 11 1 7 8 9 10 9 9 16 16 14 12 7 1 4 9 14 18 23 27 25 26 26 30 31 28 27 22 14 15 14 17 19 18 16
10 9 10 10 15 19 5 3 10 7 3 6 10 10 11 11 12 14 15 13 12 9 4 3 8 8 14 23 24 24 24 33 34 33 34 39 41 27 20 17 16 17 17 17
8 9 10 8 5 4 4 7 6 6 5 5 10 12 12 13 12 13 12 7 8 5 2 4 10 13 16 21 21 25 30 32 32 34 34 32 28 29 30 26 20 18 18 17
16 12 9 14 12 15 12 8 7 5 6 7 9 10 13 12 14 12 11 9 5 3 1 6 10 14 15 16 27 29 28 29 29 28 24 28 30 28 25 24 21 19 19 20
10 3 11 15 16 17 14 14 8 5 8 9 11 11 11 12 14 12 10 7 3 1 2 6 9 13 14 21 23 25 27 24 22 22 23 22 23 23 22 21 21 20 19 20
13 18 14 15 16 16 17 12 7 14 14 13 11 12 13 12 13 13 8 8 3 3 6 7 8 11 14 19 21 23 21 22 21 22 23 24 23 21 20 19 17 17 14 19
Wind_Direction
202 220 225 216 232 328 292 283 303 353 48 290 265 270 236 190 204 192 194 196 196 194 184 185 192 193 194 197 197 197 198 200 196 194 199 197 196 191 195 198 209 227 206 199
204 231 239 270 272 250 256 275 277 300 54 263 298 286 259 192 207 206 200 197 202 196 184 188 191 195 196 197 199 196 199 196 194 191 183 185 181 176 184 201 223 196 209 203
235 231 274 220 227 248 247 260 292 300 318 247 291 277 153 195 203 213 212 206 203 204 192 188 196 199 199 201 200 200 200 199 195 190 180 165 171 176 193 201 199 200 213 221
242 241 252 235 243 238 262 260 257 274 276 292 344 309 278 148 202 209 217 214 208 204 206 188 192 199 201 199 201 200 200 197 192 187 186 183 191 186 191 191 190 198 193 179
202 219 230 246 245 243 261 27 264 287 277 278 264 262 349 173 202 211 214 216 214 204 204 198 193 196 200 193 195 196 196 194 192 190 192 187 197 192 187 185 183 187 176 171
216 116 251 252 242 249 261 221 237 248 267 268 260 261 280 97 306 123 206 205 215 209 202 207 195 190 192 191 189 188 189 190 188 189 190 190 192 191 187 187 186 186 175 165
208 221 230 245 237 197 223 242 252 245 234 246 254 239 261 309 307 306 301 252 199 208 199 200 198 186 187 186 187 185 185 185 185 187 190 190 189 192 193 192 202 191 190 190
257 229 207 209 234 247 214 241 248 247 249 257 165 239 257 264 313 298 289 258 197 203 201 197 200 190 186 187 185 184 184 183 184 186 190 190 188 193 196 203 203 204 199 185
271 236 228 235 248 249 240 238 257 269 267 261 272 221 253 267 267 278 11 271 202 193 200 195 195 196 185 187 188 185 182 183 184 186 188 189 189 192 198 195 203 195 182 173
303 270 253 238 206 224 254 318 215 231 250 256 241 253 264 279 257 289 280 239 185 191 195 194 193 192 188 190 189 187 185 183 183 185 187 187 186 185 183 178 183 176 171 162
314 254 245 214 213 228 188 238 239 280 263 256 255 249 231 227 255 290 333 332 206 190 193 191 188 191 187 188 187 185 184 182 181 182 183 181 183 180 177 166 166 163 159 155
19 302 275 281 86 323 287 266 242 241 243 246 271 272 152 212 286 297 287 247 229 200 191 191 187 182 182 184 181 183 183 180 179 178 176 174 173 172 171 161 163 160 157 155
346 262 289 252 176 196 242 247 250 265 259 257 271 264 244 257 261 286 298 264 211 196 185 187 185 184 183 183 179 179 180 180 175 171 170 171 172 168 167 161 158 154 150 148
271 269 272 288 337 329 291 266 255 258 255 257 250 263 260 278 263 282 306 288 242 204 186 184 183 182 181 183 178 178 179 177 171 173 175 176 171 167 161 157 158 156 150 149
277 285 285 269 276 280 271 277 270 262 260 262 276 275 291 254 328 312 304 292 265 223 200 190 185 180 182 179 180 181 180 178 176 174 172 173 162 163 158 153 157 155 150 152
291 276 268 272 272 263 264 268 268 267 263 266 261 271 269 287 295 293 304 310 291 253 224 203 195 182 184 182 182 181 180 179 174 168 170 162 161 164 167 156 156 154 150 153
284 274 269 267 270 271 261 255 259 261 268 276 260 286 348 289 301 311 313 321 312 285 242 210 200 191 190 188 184 182 177 175 172 169 165 162 158 164 170 158 158 157 154 158
253 263 265 272 274 257 265 30 295 273 271 255 270 289 309 303 305 305 41 347 333 322 276 215 207 199 198 190 184 179 177 177 172 168 163 160 159 167 166 158 160 164 158 161
230 248 254 258 251 256 274 250 256 263 269 212 283 300 322 318 284 153 336 343 327 308 284 227 209 199 191 182 177 175 175 175 168 164 159 159 167 169 167 164 166 167 163 163
235 225 245 242 260 268 255 19 355 302 259 133 325 355 352 334 292 41 351 347 335 321 281 222 198 189 182 177 166 174 174 164 160 148 153 158 162 170 175 173 163 158 166 165
203 225 233 237 252 266 283 329 297 243 307 347 355 350 350 353 342 321 343 343 343 343 331 176 180 174 174 169 175 173 162 157 144 147 150 145 142 174 180 181 170 165 165 168
255 251 241 234 263 261 65 230 253 3 334 4 339 342 330 330 329 337 338 347 346 357 30 119 125 148 162 173 175 170 157 144 150 151 155 153 155 176 178 182 185 174 173 173
251 246 285 291 267 40 339 301 312 300 321 354 358 331 326 328 339 336 327 348 333 344 35 136 149 145 159 178 182 138 146 155 158 160 171 172 159 160 165 168 183 178 179 184
256 257 258 274 257 274 297 267 264 274 305 344 329 326 333 351 332 327 326 334 328 352 79 123 145 152 166 170 152 155 163 169 168 168 172 164 159 162 165 168 178 183 187 194
263 318 262 264 263 270 261 259 272 293 317 319 314 321 321 337 320 321 328 323 321 282 203 177 173 169 161 159 166 171 174 166 159 165 167 165 157 165 172 175 178 189 196 200
260 262 256 266 283 291 297 296 265 308 301 298 291 299 306 318 305 302 334 312 280 256 197 197 191 179 172 175 177 169 168 163 165 162 162 169 167 175 176 171 175 200 198 205
Height
733 747 754 739 734 737 746 755 759 745 737 750 747 745 741 746 750 753 754 756 756 758 762 769 777 782 787 792 796 801 805 808 812 815 817 818 819 821 823 825 826 826 828 829
745 752 729 725 731 743 747 755 755 742 739 748 741 743 731 736 744 743 746 750 750 751 755 764 770 776 782 787 792 797 801 805 808 811 814 816 817 819 821 823 823 824 826 827
747 735 726 737 742 749 745 752 751 756 741 733 742 733 736 730 734 736 737 739 742 745 748 755 763 769 775 781 787 792 796 800 805 808 811 814 817 818 819 820 821 822 825 825
739 724 740 742 745 740 754 726 744 749 754 763 737 768 730 730 738 737 735 735 736 742 743 747 755 762 767 774 781 787 792 796 801 804 808 811 812 814 817 819 820 821 822 823
744 744 746 749 741 731 747 731 744 746 752 747 745 759 731 722 734 731 728 726 727 730 737 740 745 752 760 767 775 781 786 792 797 799 803 807 810 811 814 817 820 821 821 823
735 732 736 734 730 731 728 744 746 744 750 772 743 748 740 723 721 716 711 716 719 721 728 734 740 746 753 761 769 776 781 786 791 796 799 803 807 809 811 814 817 820 821 822
741 744 733 732 744 733 739 746 770 776 771 772 725 750 734 708 701 697 704 703 707 712 718 728 731 739 748 755 763 770 776 781 786 791 796 800 803 807 810 813 815 816 818 820
760 760 736 726 738 740 739 740 757 787 772 755 726 759 733 699 692 689 696 700 700 707 710 718 727 732 742 750 758 763 771 777 782 787 791 796 801 805 808 811 811 814 816 819
754 758 727 730 724 730 737 754 727 744 733 750 736 723 712 700 695 689 692 695 700 702 705 710 718 725 735 744 751 757 765 773 778 783 789 793 797 801 804 808 812 814 817 819
744 767 730 724 727 728 734 722 751 744 775 773 743 738 736 714 706 693 691 693 694 698 701 704 711 721 729 738 746 754 760 766 772 778 783 788 792 797 801 805 810 814 817 819
742 749 742 734 737 734 738 744 737 727 729 752 755 735 691 704 698 695 689 692 691 696 698 701 707 717 725 733 741 749 756 761 767 773 779 784 790 794 799 803 808 811 815 818
745 747 753 737 717 718 720 723 722 743 753 737 738 731 683 689 688 691 693 692 688 690 694 698 705 713 722 729 736 743 751 757 762 769 775 781 786 792 797 799 803 806 809 813
748 748 761 742 729 725 733 720 718 713 714 737 744 732 683 684 692 690 691 688 689 690 692 697 702 710 719 727 734 739 746 751 757 765 771 778 781 786 793 797 802 804 808 812
759 747 753 758 743 733 744 731 723 723 731 729 725 720 703 695 692 687 690 688 687 689 688 691 698 708 716 723 729 734 739 747 752 758 763 771 776 780 786 794 801 804 806 810
751 764 749 741 736 733 735 734 728 730 722 729 714 710 701 692 698 698 696 691 688 687 685 687 692 700 712 718 725 730 734 740 746 755 763 771 778 786 788 787 796 801 805 809
746 764 754 757 739 732 737 723 716 717 716 717 711 712 686 690 694 696 694 692 689 684 684 685 690 695 704 711 716 724 730 739 746 755 762 769 776 783 787 787 791 796 801 807
758 756 757 762 738 733 746 723 709 710 704 709 720 699 693 698 697 695 693 691 690 686 679 682 686 691 697 702 710 718 728 738 744 751 759 766 773 783 791 791 795 795 798 804
757 757 755 760 749 769 722 701 706 710 703 702 703 698 700 696 690 685 691 690 689 686 682 679 683 688 696 702 711 720 728 738 746 753 759 765 773 781 787 789 795 800 800 804
741 752 757 762 753 735 719 708 714 716 710 701 705 702 697 689 679 691 686 686 685 682 679 677 680 685 693 700 711 721 729 737 744 751 758 767 776 782 785 788 792 797 801 803
738 744 752 748 761 758 716 713 710 710 725 697 704 706 705 694 690 689 686 684 681 677 674 675 678 685 694 701 711 720 725 733 741 751 761 770 781 790 793 792 790 793 801 805
750 751 755 745 750 731 705 710 709 738 727 711 708 709 709 711 709 700 692 689 684 679 677 679 681 686 695 704 711 716 722 729 736 745 753 759 770 791 794 799 797 794 797 803
748 746 739 739 745 747 710 713 727 717 711 715 714 711 710 706 702 699 696 697 694 687 685 685 688 694 701 705 709 714 719 724 733 742 750 747 737 770 783 794 799 796 797 801
754 737 737 728 724 718 714 716 712 713 716 715 722 715 710 705 701 701 697 699 702 698 695 695 695 698 702 706 708 713 721 726 730 734 743 749 751 756 765 775 792 794 796 800
732 726 740 734 722 715 710 713 714 713 715 717 715 713 709 704 704 701 696 697 703 702 700 700 701 701 703 706 710 715 722 726 730 736 746 749 752 758 767 773 783 787 792 794
731 734 735 729 721 718 714 712 712 715 717 717 713 712 710 705 705 702 696 698 702 703 704 703 703 703 704 706 711 716 721 725 731 739 745 752 756 764 769 770 774 781 786 790
732 734 736 728 719 717 716 711 713 716 716 715 714 713 708 704 708 704 694 696 699 700 703 703 704 705 706 707 709 714 720 724 732 737 743 750 756 763 767 767 773 780 782 786